WB3DCA Weather Reports


Display with metric or nautical units.
time (UTC)temp
F
wind
direction
speed
MPH
gust
MPH
rain 1hr
in
rain 24hr
in
rain mn
in
humidity
%
barometer
mb
20260507134550 56 147 3.0 7.0 0.00 0.26 0.02 64 1008.3
20260507134042 57 225 1.0 7.0 0.00 0.26 0.02 67 1008.5
20260507133541 56 255 1.0 7.0 0.00 0.26 0.02 66 1008.5
20260507133049 56 152 2.0 6.0 0.00 0.26 0.02 70 1008.5
20260507132542 56 0 2.0 6.0 0.00 0.26 0.02 70 1008.7
20260507132043 55 168 1.0 4.0 0.00 0.26 0.02 70 1008.7
20260507131546 55 0 1.0 8.0 0.00 0.26 0.02 71 1008.8
20260507131042 54 157 1.0 8.0 0.00 0.26 0.02 72 1008.8
20260507130541 54 284 1.0 6.0 0.00 0.26 0.02 71 1008.8
20260507130055 54 94 1.0 6.0 0.00 0.26 0.02 69 1008.8
20260507125542 54 66 2.0 5.0 0.00 0.26 0.02 72 1008.7
20260507125043 54 0 1.0 5.0 0.00 0.26 0.02 71 1008.7
20260507124548 53 153 1.0 5.0 0.00 0.26 0.02 71 1008.7
20260507124042 53 332 1.0 5.0 0.00 0.26 0.02 74 1008.8
20260507123543 53 47 1.0 5.0 0.00 0.26 0.02 78 1008.8
20260507123050 52 24 2.0 4.0 0.00 0.26 0.02 73 1008.8
20260507122540 52 308 2.0 4.0 0.00 0.26 0.02 76 1008.8
20260507122042 52 355 1.0 4.0 0.00 0.26 0.02 79 1008.9
20260507121549 52 124 2.0 4.0 0.00 0.26 0.02 79 1009.1
20260507121043 51 13 0.0 5.0 0.00 0.26 0.02 80 1009.1
20260507120542 51 17 1.0 5.0 0.00 0.26 0.02 79 1009.1
20260507120050 51 355 1.0 5.0 0.00 0.26 0.02 83 1009.1
20260507115541 51 333 0.0 4.0 0.00 0.26 0.02 85 1009.1
20260507115041 50 86 1.0 6.0 0.00 0.26 0.02 83 1009.1
20260507114544 50 13 1.0 6.0 0.00 0.26 0.02 85 1009.0
20260507114044 49 24 0.0 6.0 0.00 0.26 0.02 86 1009.0
20260507113542 49 0 1.0 6.0 0.00 0.26 0.02 87 1008.9
20260507113044 48 162 0.0 2.0 0.00 0.26 0.02 89 1008.9
20260507112542 47 5 0.0 3.0 0.01 0.26 0.02 88 1008.8
20260507112042 47 0 0.0 3.0 0.01 0.26 0.02 88 1008.9
20260507111551 47 119 0.0 0.0 0.01 0.26 0.02 88 1009.0
20260507111139 47 0 0.0 2.0 0.01 0.26 0.02 88 1008.9
20260507110542 46 0 0.0 2.0 0.01 0.26 0.02 87 1008.8
20260507110050 46 0 0.0 4.0 0.01 0.26 0.02 88 1008.5
20260507105542 46 0 1.0 4.0 0.01 0.26 0.02 88 1008.6
20260507105044 46 332 0.0 3.0 0.01 0.26 0.02 89 1008.5
20260507104556 46 0 1.0 3.0 0.01 0.26 0.02 88 1008.3
20260507104045 46 0 0.0 3.0 0.01 0.26 0.02 88 1008.2
20260507103543 46 0 0.0 3.0 0.01 0.26 0.02 88 1008.3
20260507103055 46 0 0.0 3.0 0.01 0.26 0.02 89 1008.4
20260507102542 46 0 0.0 3.0 0.00 0.25 0.01 89 1008.2
20260507102042 46 0 0.0 3.0 0.00 0.25 0.01 89 1008.2
20260507101551 46 0 0.0 3.0 0.00 0.25 0.01 89 1008.3
20260507101045 46 175 0.0 0.0 0.00 0.25 0.01 88 1008.3
20260507100541 46 0 0.0 0.0 0.00 0.25 0.01 88 1008.3
20260507100045 46 0 0.0 0.0 0.00 0.25 0.01 89 1008.2
20260507095542 46 0 0.0 0.0 0.00 0.25 0.01 88 1008.5
20260507095044 46 0 0.0 0.0 0.00 0.25 0.01 88 1008.6
20260507094549 46 0 0.0 5.0 0.00 0.25 0.01 89 1008.6
20260507094041 46 0 0.0 5.0 0.00 0.25 0.01 89 1008.6
20260507093542 46 143 0.0 3.0 0.00 0.25 0.01 90 1008.5
20260507093052 45 175 0.0 3.0 0.00 0.25 0.01 91 1008.3
20260507092542 45 53 0.0 4.0 0.00 0.25 0.01 90 1008.3
20260507092042 45 0 0.0 4.0 0.00 0.25 0.01 91 1008.3
20260507091548 45 142 0.0 5.0 0.00 0.25 0.01 92 1008.5
20260507091042 46 0 0.0 5.0 0.00 0.25 0.01 92 1008.4
20260507090541 46 264 0.0 2.0 0.00 0.25 0.01 93 1008.5
20260507090047 46 0 0.0 2.0 0.00 0.25 0.01 93 1008.1
20260507085542 46 0 0.0 2.0 0.00 0.25 0.01 93 1008.4
20260507085047 46 264 0.0 2.0 0.00 0.25 0.01 93 1008.7
20260507084547 46 0 0.0 1.0 0.00 0.25 0.01 92 1008.3
20260507084040 46 0 0.0 1.0 0.01 0.25 0.01 92 1008.2
20260507083543 46 0 0.0 1.0 0.01 0.25 0.01 92 1008.1
20260507083050 46 0 0.0 1.0 0.01 0.25 0.01 92 1007.9
20260507082544 46 0 0.0 0.0 0.01 0.25 0.01 92 1008.1
20260507082041 46 0 0.0 2.0 0.01 0.25 0.01 91 1007.9
20260507081548 46 0 0.0 2.0 0.01 0.25 0.01 90 1008.0
20260507081044 47 217 0.0 4.0 0.01 0.25 0.01 90 1008.0
20260507080543 47 0 0.0 4.0 0.01 0.25 0.01 89 1007.8
20260507080052 47 0 0.0 4.0 0.01 0.25 0.01 88 1008.0
20260507075542 47 0 0.0 4.0 0.01 0.25 0.01 88 1008.0
20260507075043 47 0 0.0 4.0 0.01 0.25 0.01 88 1008.3
20260507074546 48 157 0.0 3.0 0.00 0.24 0.00 88 1008.3
20260507074041 48 188 0.0 2.0 0.00 0.24 0.00 87 1008.2
20260507073539 48 0 0.0 5.0 0.00 0.24 0.00 89 1008.1
20260507073055 48 0 1.0 5.0 0.00 0.24 0.00 89 1008.2
20260507072542 48 63 0.0 4.0 0.00 0.24 0.00 88 1007.9
20260507072045 48 57 0.0 2.0 0.00 0.24 0.00 89 1007.7
20260507071552 48 233 0.0 2.0 0.00 0.24 0.00 90 1007.9
20260507071041 48 0 0.0 3.0 0.00 0.24 0.00 90 1007.7
20260507070542 48 0 0.0 3.0 0.00 0.24 0.00 90 1007.8
20260507070057 48 205 0.0 4.0 0.00 0.24 0.00 90 1007.8
20260507065544 48 0 1.0 4.0 0.00 0.24 0.00 91 1008.0
20260507065041 48 55 0.0 4.0 0.00 0.24 0.00 90 1007.7
20260507064548 48 0 0.0 4.0 0.00 0.24 0.00 90 1007.7
20260507064042 48 217 0.0 4.0 0.00 0.24 0.00 90 1007.8
20260507063545 48 219 1.0 5.0 0.00 0.24 0.00 90 1007.9
20260507063051 48 195 0.0 5.0 0.00 0.24 0.00 90 1007.6
20260507062542 48 148 1.0 4.0 0.00 0.24 0.00 90 1007.3
20260507062040 48 0 0.0 4.0 0.00 0.24 0.00 91 1007.5
20260507061551 48 107 0.0 4.0 0.00 0.24 0.00 91 1007.3
20260507061040 48 314 1.0 4.0 0.00 0.24 0.00 91 1007.6
20260507060541 48 0 0.0 4.0 0.00 0.24 0.00 91 1007.4
20260507060058 48 0 1.0 8.0 0.00 0.24 0.00 91 1007.6
20260507055542 48 0 1.0 8.0 0.00 0.24 0.00 92 1007.8
20260507055041 49 0 0.0 4.0 0.00 0.24 0.00 92 1007.9
20260507054550 49 0 1.0 3.0 0.00 0.24 0.00 92 1007.9
20260507054041 49 0 1.0 3.0 0.00 0.24 0.00 92 1007.8
20260507053542 49 130 0.0 3.0 0.00 0.24 0.00 94 1007.8
20260507053054 49 290 0.0 3.0 0.00 0.24 0.00 94 1007.9
20260507052541 49 0 0.0 2.0 0.00 0.24 0.00 94 1007.9
20260507052042 49 0 0.0 2.0 0.00 0.24 0.00 94 1007.9
20260507051549 49 0 0.0 2.0 0.00 0.24 0.00 94 1007.8
20260507051042 49 252 0.0 2.0 0.00 0.24 0.00 94 1007.9
20260507050542 49 0 0.0 3.0 0.00 0.24 0.00 94 1007.7
20260507050050 49 0 1.0 6.0 0.00 0.24 0.00 94 1007.7
20260507045542 50 0 0.0 8.0 0.00 0.24 0.00 94 1007.5
20260507045042 50 196 1.0 8.0 0.00 0.24 0.00 93 1007.6
20260507044554 50 260 0.0 5.0 0.00 0.24 0.00 94 1007.5
20260507044041 50 292 1.0 5.0 0.00 0.24 0.00 94 1007.7
20260507043543 50 229 0.0 2.0 0.00 0.24 0.00 95 1007.8
20260507043051 50 0 0.0 2.0 0.00 0.24 0.00 95 1007.8
20260507042542 50 0 0.0 2.0 0.00 0.24 0.00 95 1007.8
20260507042044 50 0 0.0 3.0 0.00 0.24 0.00 94 1007.9
20260507041549 50 0 0.0 3.0 0.00 0.24 0.00 94 1008.0
20260507041041 51 180 1.0 3.0 0.00 0.24 0.00 94 1008.0
20260507040545 51 206 0.0 4.0 0.00 0.24 0.00 94 1007.9
20260507040050 51 0 1.0 4.0 0.00 0.24 0.00 94 1007.7
20260507035541 51 264 0.0 4.0 0.00 0.24 0.24 93 1007.4
20260507035042 51 0 1.0 4.0 0.00 0.24 0.24 94 1007.4
20260507034545 51 253 0.0 3.0 0.00 0.24 0.24 94 1007.4
20260507034041 52 281 0.0 10.0 0.00 0.24 0.24 93 1007.2
20260507033546 52 321 1.0 10.0 0.00 0.24 0.24 93 1007.1
20260507033044 53 336 1.0 5.0 0.00 0.24 0.24 93 1007.3
20260507032542 53 248 0.0 5.0 0.00 0.24 0.24 94 1007.3
20260507032041 54 40 1.0 5.0 0.00 0.24 0.24 94 1007.1
20260507031548 55 262 1.0 9.0 0.00 0.24 0.24 95 1007.2
20260507031039 55 351 2.0 9.0 0.00 0.24 0.24 95 1007.1
20260507030543 55 345 2.0 9.0 0.00 0.24 0.24 95 1007.0
20260507030054 56 0 1.0 4.0 0.00 0.24 0.24 95 1007.1
20260507025544 57 0 1.0 4.0 0.00 0.24 0.24 95 1007.1
20260507025041 57 65 0.0 3.0 0.00 0.24 0.24 96 1006.9
20260507024553 58 76 1.0 3.0 0.00 0.24 0.24 96 1006.7
20260507024041 58 229 0.0 3.0 0.00 0.24 0.24 97 1006.8
20260507023542 58 227 1.0 4.0 0.00 0.24 0.24 97 1006.8
20260507023048 58 0 0.0 4.0 0.00 0.24 0.24 97 1006.7
20260507022541 58 272 2.0 4.0 0.00 0.24 0.24 97 1006.5
20260507022042 58 252 2.0 4.0 0.00 0.24 0.24 97 1006.1
20260507021549 58 246 2.0 4.0 0.00 0.24 0.24 97 1006.1
20260507021041 58 260 2.0 4.0 0.00 0.24 0.24 97 1006.1
20260507020542 58 253 2.0 4.0 0.00 0.24 0.24 97 1006.1
20260507020050 58 249 2.0 4.0 0.00 0.24 0.24 97 1006.2
20260507015541 58 249 2.0 4.0 0.00 0.24 0.24 96 1006.1
20260507015041 58 246 2.0 4.0 0.00 0.24 0.24 96 1006.2
20260507014544 58 267 2.0 4.0 0.00 0.24 0.24 96 1006.1
20260507014042 58 261 2.0 5.0 0.00 0.24 0.24 96 1006.1
20260507013541 58 239 3.0 7.0 0.00 0.24 0.24 96 1006.1
20260507013055 58 238 3.0 7.0 0.00 0.24 0.24 96 1006.1
20260507012542 58 243 2.0 7.0 0.00 0.24 0.24 96 1006.1
20260507012042 58 248 3.0 7.0 0.00 0.24 0.24 96 1006.1
20260507011548 58 252 3.0 7.0 0.00 0.24 0.24 96 1006.1
20260507011042 58 234 3.0 7.0 0.00 0.24 0.24 96 1006.1
20260507010543 58 257 3.0 7.0 0.00 0.24 0.24 96 1006.0
20260507010050 58 248 3.0 5.0 0.00 0.24 0.24 96 1006.2
20260507005542 58 244 3.0 5.0 0.00 0.24 0.24 96 1006.1
20260507005043 58 260 3.0 7.0 0.00 0.24 0.24 96 1006.1
20260507004549 58 246 3.0 7.0 0.00 0.24 0.24 96 1006.0
20260507004041 58 238 3.0 7.0 0.00 0.24 0.24 96 1006.0
20260507003544 58 246 3.0 7.0 0.00 0.24 0.24 97 1005.8
20260507003056 58 232 3.0 7.0 0.00 0.24 0.24 97 1005.8
20260507002544 58 237 3.0 7.0 0.00 0.24 0.24 96 1005.9
20260507002042 58 248 3.0 7.0 0.00 0.24 0.24 96 1006.0
20260507001550 58 248 3.0 7.0 0.00 0.24 0.24 97 1005.9
20260507001041 58 254 4.0 7.0 0.00 0.24 0.24 96 1005.8
20260507000544 58 267 3.0 6.0 0.01 0.24 0.24 97 1005.9
20260507000054 58 243 3.0 7.0 0.01 0.24 0.24 96 1005.9
20260506235542 58 237 3.0 7.0 0.01 0.24 0.24 96 1005.7
20260506235045 58 242 3.0 8.0 0.01 0.24 0.24 96 1005.8
20260506234554 58 242 3.0 8.0 0.01 0.24 0.24 96 1005.8
20260506234043 58 246 3.0 8.0 0.01 0.24 0.24 96 1005.6
20260506233542 58 250 3.0 6.0 0.01 0.24 0.24 96 1005.6
20260506233100 58 244 3.0 7.0 0.01 0.24 0.24 96 1005.7
20260506232542 58 240 2.0 7.0 0.01 0.24 0.24 96 1005.8
20260506232040 58 248 3.0 6.0 0.01 0.24 0.24 96 1005.8
20260506231553 58 237 3.0 6.0 0.01 0.24 0.24 96 1005.7
20260506231041 58 233 3.0 7.0 0.01 0.24 0.24 96 1005.8
20260506230540 58 238 3.0 7.0 0.00 0.23 0.23 96 1005.8
20260506230049 58 242 3.0 7.0 0.00 0.23 0.23 96 1006.0
20260506225542 58 229 3.0 7.0 0.00 0.23 0.23 96 1006.0
20260506225042 58 241 3.0 8.0 0.00 0.23 0.23 96 1006.0
20260506224602 58 252 4.0 8.0 0.00 0.23 0.23 96 1006.0
20260506224043 58 231 4.0 7.0 0.00 0.23 0.23 96 1005.9
20260506223543 58 242 4.0 8.0 0.00 0.23 0.23 96 1006.0
20260506223052 58 233 3.0 8.0 0.01 0.23 0.23 96 1006.1
20260506222545 58 239 3.0 8.0 0.01 0.23 0.23 96 1006.2
20260506222043 58 239 2.0 5.0 0.02 0.23 0.23 96 1006.1
20260506221554 58 235 3.0 7.0 0.02 0.23 0.23 96 1006.1
20260506221043 58 245 2.0 7.0 0.03 0.23 0.23 96 1006.3
20260506220544 58 231 3.0 7.0 0.03 0.23 0.23 96 1006.2
20260506220051 59 257 2.0 7.0 0.04 0.23 0.23 96 1006.4
20260506215543 59 238 3.0 7.0 0.05 0.23 0.23 96 1006.4
20260506215043 59 242 3.0 5.0 0.06 0.23 0.23 96 1006.4
20260506214607 59 233 2.0 5.0 0.06 0.23 0.23 96 1006.4
20260506214044 59 239 2.0 7.0 0.07 0.23 0.23 95 1006.4
20260506213544 59 247 3.0 8.0 0.07 0.23 0.23 95 1006.4
20260506213050 59 230 4.0 8.0 0.06 0.22 0.22 95 1006.5
20260506212544 59 223 3.0 8.0 0.05 0.21 0.21 95 1006.5
20260506212043 59 216 3.0 7.0 0.05 0.21 0.21 95 1006.5
20260506211547 59 240 3.0 7.0 0.06 0.21 0.21 95 1006.6
20260506211043 59 233 3.0 7.0 0.05 0.20 0.20 95 1006.6
20260506210543 59 234 3.0 9.0 0.06 0.20 0.20 95 1006.6
20260506210054 59 242 3.0 9.0 0.05 0.19 0.19 95 1006.7
20260506205543 59 221 4.0 7.0 0.05 0.18 0.18 95 1006.7
20260506205043 60 248 2.0 8.0 0.04 0.17 0.17 95 1006.8
20260506204559 60 265 3.0 8.0 0.04 0.17 0.17 95 1006.8
20260506204041 60 247 3.0 7.0 0.03 0.16 0.16 95 1006.8
20260506203544 60 227 3.0 5.0 0.03 0.16 0.16 95 1006.8
20260506203052 60 233 2.0 5.0 0.03 0.16 0.16 94 1006.8
20260506202542 60 235 2.0 7.0 0.03 0.16 0.16 94 1006.8
20260506202042 60 232 4.0 8.0 0.03 0.16 0.16 94 1006.8
20260506201555 60 234 3.0 8.0 0.02 0.15 0.15 94 1006.8
20260506201041 60 241 3.0 6.0 0.02 0.15 0.15 94 1006.9
20260506200543 60 246 3.0 6.0 0.02 0.14 0.14 94 1007.0
20260506200051 61 224 3.0 5.0 0.02 0.14 0.14 94 1007.0
20260506195542 61 250 3.0 5.0 0.01 0.13 0.13 94 1007.0
20260506195044 61 255 2.0 4.0 0.02 0.13 0.13 94 1007.0
20260506194600 61 252 2.0 4.0 0.02 0.13 0.13 94 1007.0
20260506194050 61 241 2.0 3.0 0.03 0.13 0.13 94 1007.1
20260506193541 61 235 1.0 3.0 0.03 0.13 0.13 94 1006.9
20260506193100 61 223 2.0 3.0 0.03 0.13 0.13 94 1007.0
20260506192541 61 211 2.0 3.0 0.04 0.13 0.13 94 1007.1
20260506192044 61 240 1.0 3.0 0.05 0.13 0.13 94 1007.0
20260506191555 61 240 1.0 4.0 0.07 0.13 0.13 93 1006.8
20260506191044 61 240 1.0 4.0 0.08 0.13 0.13 93 1007.0
20260506190544 61 250 2.0 4.0 0.07 0.12 0.12 93 1007.3
20260506190053 61 0 0.0 3.0 0.08 0.12 0.12 93 1007.2
20260506185543 61 217 0.0 2.0 0.08 0.12 0.12 93 1007.3
20260506185040 61 0 0.0 2.0 0.07 0.11 0.11 92 1007.4
20260506184557 61 0 0.0 2.0 0.08 0.11 0.11 92 1007.5
20260506184042 61 217 1.0 2.0 0.08 0.10 0.10 92 1007.7
20260506183542 61 217 1.0 2.0 0.09 0.10 0.10 92 1007.6
20260506183100 61 0 0.0 2.0 0.09 0.09 0.09 92 1007.6
20260506182541 61 217 0.0 2.0 0.09 0.09 0.09 91 1007.9
20260506182041 62 0 0.0 0.0 0.08 0.08 0.08 91 1008.0
20260506181552 62 0 0.0 0.0 0.06 0.06 0.06 90 1007.9
20260506181042 62 0 0.0 0.0 0.05 0.05 0.05 90 1007.9
20260506180541 62 0 0.0 0.0 0.05 0.05 0.05 89 1007.8
20260506180055 62 0 0.0 1.0 0.04 0.04 0.04 89 1008.0
20260506175542 62 0 0.0 3.0 0.04 0.04 0.04 88 1008.0
20260506175044 63 0 1.0 6.0 0.04 0.04 0.04 86 1008.0
20260506174556 64 257 1.0 8.0 0.03 0.03 0.03 84 1008.2
20260506174041 65 252 3.0 8.0 0.02 0.02 0.02 80 1008.2
20260506173544 67 258 4.0 9.0 0.01 0.01 0.01 72 1007.9
20260506173059 70 255 4.0 9.0 0.00 0.00 0.00 64 1007.6
20260506172542 70 259 4.0 9.0 0.00 0.00 0.00 62 1007.5
20260506172041 71 243 4.0 11.0 0.00 0.00 0.00 60 1007.5
20260506171557 71 251 5.0 11.0 0.00 0.00 0.00 60 1007.7
20260506171042 72 238 5.0 11.0 0.00 0.00 0.00 60 1007.7
20260506170544 72 232 4.0 11.0 0.00 0.00 0.00 60 1007.8
20260506170059 72 266 7.0 11.0 0.00 0.00 0.00 60 1007.8
20260506165543 72 241 6.0 11.0 0.00 0.00 0.00 61 1007.9
20260506165043 72 250 5.0 10.0 0.00 0.00 0.00 60 1007.8
20260506164558 72 236 3.0 9.0 0.00 0.00 0.00 62 1007.9
20260506164042 71 259 4.0 9.0 0.00 0.00 0.00 63 1008.0
20260506163542 71 259 3.0 7.0 0.00 0.00 0.00 63 1008.1
20260506163203 70 261 3.0 7.0 0.00 0.00 0.00 65 1008.3
20260506162542 70 225 2.0 9.0 0.00 0.00 0.00 65 1008.4
20260506162045 70 211 3.0 11.0 0.00 0.00 0.00 65 1008.5
20260506161551 70 236 5.0 11.0 0.00 0.00 0.00 64 1008.6
20260506161043 70 203 4.0 10.0 0.00 0.00 0.00 65 1008.7
20260506160542 70 239 5.0 10.0 0.00 0.00 0.00 65 1008.7
20260506160052 69 230 4.0 10.0 0.00 0.00 0.00 65 1008.9
20260506155541 69 244 5.0 9.0 0.00 0.00 0.00 66 1009.0
20260506155043 69 227 5.0 9.0 0.00 0.00 0.00 66 1009.1
20260506154613 69 242 3.0 9.0 0.00 0.00 0.00 66 1009.1
20260506154043 69 254 4.0 9.0 0.00 0.00 0.00 65 1009.2
20260506153542 69 248 3.0 7.0 0.00 0.00 0.00 66 1009.1
20260506153050 69 245 2.0 7.0 0.00 0.00 0.00 66 1009.3
20260506152545 69 236 3.0 9.0 0.00 0.00 0.00 66 1009.3
20260506152043 69 241 5.0 10.0 0.00 0.00 0.00 66 1009.3
20260506151554 69 279 4.0 10.0 0.00 0.00 0.00 66 1009.4
20260506151042 69 252 6.0 10.0 0.00 0.00 0.00 65 1009.5
20260506150545 70 245 5.0 10.0 0.00 0.00 0.00 66 1009.4
20260506150053 69 244 3.0 8.0 0.00 0.00 0.00 66 1009.3
20260506145545 69 246 4.0 8.0 0.00 0.00 0.00 66 1009.3
20260506145040 69 246 3.0 8.0 0.00 0.00 0.00 67 1009.6
20260506144601 69 232 3.0 8.0 0.00 0.00 0.00 68 1009.4
20260506144041 69 266 3.0 7.0 0.00 0.00 0.00 68 1009.3
20260506143543 69 249 3.0 8.0 0.00 0.00 0.00 68 1009.2
20260506143049 68 228 3.0 10.0 0.00 0.00 0.00 69 1009.2
20260506142542 68 244 4.0 10.0 0.00 0.00 0.00 69 1009.2
20260506142042 68 230 3.0 9.0 0.00 0.00 0.00 70 1009.3
20260506141550 67 236 5.0 9.0 0.00 0.00 0.00 70 1009.3
20260506141043 67 257 5.0 8.0 0.00 0.00 0.00 70 1009.2
20260506140543 67 232 2.0 8.0 0.00 0.00 0.00 72 1009.1
20260506140058 67 233 3.0 8.0 0.00 0.00 0.00 71 1009.1
20260506135542 66 213 2.0 8.0 0.00 0.00 0.00 72 1009.3
20260506135042 66 258 3.0 6.0 0.00 0.00 0.00 73 1009.3